STARLINK-2436

Last updated on Sat May 08 2021 00:02:03 GMT+0000 (Coordinated Universal Time)

1 48101U 21027K 21127.58334491 .00057131 00000-0 40877-3 0 9992 2 48101 53.0472 191.7552 0002802 16.1889 282.3550 15.73189742 1779

Satellite not in orbit